Regional Weather Roundup
Issued by NWS

Home | Current Version | Previous Version | Graphics & Text | Print | Product List | Glossary On
Versions: 1 2 3 4 5 6 7 8 9 10 11 12 13 14 15 16 17 18 19 20 21 22 23 24 25 26 27 28 29 30 31 32 33 34 35 36 37 38 39 40 41 42 43 44 45 46 47 48 49 50
000
ASUS43 KMPX 161010
RWRMN
WEATHER ROUNDUP FOR MINNESOTA
NATIONAL WEATHER SERVICE TWIN CITIES/CHANHASSEN MN
400 AM CST TUE JAN 16 2018


NOTE: "FAIR" INDICATES FEW OR NO CLOUDS BELOW 12,000 FEET WITH NO
SIGNIFICANT WEATHER AND/OR OBSTRUCTIONS TO VISIBILITY. N/A MEANS
CURRENT SKY AND/OR WEATHER CONDITIONS ARE NOT AVAILABLE.

MNZ060>063-068>070-161100-
   Twin Cities Metro

CITY           SKY/WX    TMP DP  RH WIND       PRES   REMARKS
TWIN CITIES    FAIR      -1  -4  87 NW10      30.64R WCI -17
ST PAUL        MOCLDY     0  -5  79 NW10      30.65R WCI -16
CRYSTAL        MOCLDY    -1  -7  75 NW8       30.64R WCI -15
BLAINE         LGT SNOW  -2  -8  78 W5        30.62R WCI -12
LAKEVILLE      MOCLDY    -2  -6  84 NW9       30.62R WCI -18
EDEN PRAIRIE   FAIR      -1  -5  82 NW8       30.63R WCI -15
SOUTH ST PAUL  FAIR       1  -4  79 NW7       30.63R WCI -11
LAKE ELMO      CLOUDY     1   0  92 NW6       30.61S WCI -10
$$
MNZ001>005-007-008-013>017-022>024-027-028-161100-
   Northwest Minnesota

CITY           SKY/WX    TMP DP  RH WIND       PRES   REMARKS
BEMIDJI        CLOUDY   -11 -15  82 W7        30.68S WCI -26
HALLOCK        FAIR     -17 -22  76 CALM      30.79F
ROSEAU         FAIR     -17 -20  83 W5        30.75S WCI -29
WARROAD        FAIR     -17 -22  76 W3        30.73S
THIEF RVR FALL FAIR     -19 -24  77 NW3       30.77S
CROOKSTON      FAIR     -15 -20  76 NW5       30.81F WCI -27
FOSSTON        CLOUDY   -15 -18  84 NW6       30.73F WCI -29
DETROIT LAKES  FAIR     -13 -17  84 NW8       30.72S WCI -30
MOORHEAD       CLOUDY   -11 -18  70 CALM      30.81S
PARK RAPIDS    FAIR     -10 -15  78 NW9       30.65F WCI -27
MAHNOMEN       CLOUDY   -12 -17  82 N6        30.73S WCI -26
$$
MNZ006-009>011-018-025>026-161100-
   North Central Minnesota

CITY           SKY/WX    TMP DP  RH WIND       PRES   REMARKS
BAUDETTE       FAIR     -16 -21  78 W6        30.70F WCI -31
FLAG ISLAND    FAIR     -17 -20  83 NW6       30.71F WCI -31
INTL FALLS     CLOUDY    -3  -7  82 NW5       30.67S WCI -13
WASKISH        CLOUDY    -9 -15  77 NW5       30.70S WCI -21
BIG FORK       CLOUDY    -2  -8  78 N3        30.65R
LONGVILLE      CLOUDY    -8 -11  84 CALM      30.65F
GRAND RAPIDS   FLURRIES  -2  -6  83 NW12      30.65S WCI -20
CRANE LAKE     CLOUDY     0  -2  92 NW5       30.67R WCI -10
ORR            CLOUDY    -2  -6  84 NW7       30.60S WCI -16
COOK           CLOUDY     0  -4  85 CALM      30.62F
WALKER         CLOUDY    -7 -11  82 NW7       30.67R WCI -21
$$
MNZ012-019>021-037-161100-
   Northeast Minnesota

CITY           SKY/WX    TMP DP  RH WIND       PRES   REMARKS
DULUTH         FAIR      -1  -3  91 N16       30.56S WCI -21
ELY            CLOUDY    -2  -6  84 N3        30.59S
HIBBING        CLOUDY    -2  -5  87 N10       30.60S FOG     WCI -19
EVELETH        FAIR      -3  -8  80 N7        30.60F WCI -17
DULUTH HARBOR  CLOUDY     7   1  78 W8        30.64S WCI  -6
TWO HARBORS    FAIR       5   0  78 NW6       30.55S WCI  -6
SILVER BAY     FAIR       1  -2  85 CALM      30.55S
GRAND MARAIS     N/A      9   0  67 N14G26    30.56S WCI  -7
G MARAIS ARPRT FAIR       0  -6  78 NW9       30.48F WCI -16
$$
MNZ029>031-032-039>041-046>048-054>057-064-161100-
   West Central Minnesota

CITY           SKY/WX    TMP DP  RH WIND       PRES   REMARKS
FERGUS FALLS   CLOUDY   -11 -18  70 N13       30.79F WCI -32
WHEATON        CLOUDY    -9 -15  77 NW15      30.80F WCI -31
MORRIS         CLOUDY    -9 -15  77 NW14G20   30.73S WCI -31
ALEXANDRIA     CLOUDY   -10 -15  78 NW9       30.68S WCI -27
ELBOW LAKE     MOCLDY   -12 -17  80 NW7       30.74F WCI -28
WADENA         CLOUDY   -11 -17  77 W7        30.67S WCI -26
GLENWOOD       CLOUDY    -9 -15  77 NW14      30.69S WCI -31
APPLETON       CLOUDY    -8 -13  77 NW12      30.78S WCI -27
BENSON         CLOUDY    -9 -17  70 N15       30.75R WCI -31
ORTONVILLE     CLOUDY    -8 -15  71 NW13G21   30.77R WCI -28
MADISON        CLOUDY    -4  -9  77 NW17      30.77S WCI -26
WILLMAR        CLOUDY    -9 -15  77 NW20      30.72R WCI -34
$$
MNZ033>034-036-042>043-049>051-058-059-161100-
   Central Minnesota

CITY           SKY/WX    TMP DP  RH WIND       PRES   REMARKS
ST CLOUD       FAIR      -4  -7  87 NW10      30.65R WCI -21
SAUK CENTRE      N/A     -8 -12  83 NW10      30.68R WCI -27
PAYNESVILLE    FAIR      -8 -12  83 NW9       30.68R WCI -26
AITKIN         FLURRIES  -2  -8  78 N7        30.62F WCI -16
PINE RIVER     FAIR      -8 -11  84 NW3       30.67S
BRAINERD       FAIR      -4  -9  79 NW9       30.65S WCI -20
STAPLES        CLOUDY    -4  -8  84 NW8       30.66S WCI -19
LONG PRAIRIE   MOCLDY    -8 -13  77 W8        30.67R WCI -23
LITTLE FALLS   FAIR      -4 -13  65 NW5       30.67S WCI -15
LITCHFIELD     MOCLDY    -6  -9  84 NW9       30.67R WCI -22
BUFFALO        CLOUDY    -1  -4  83 NW9       30.66R WCI -16
MAPLE LAKE     FAIR      -1  -4  87 MISG      30.66R
HUTCHINSON     CLOUDY    -4  -9  80 NW15      30.67R WCI -25
$$
MNZ037-044-045-052-053-161100-
   East Central Minnesota

CITY           SKY/WX    TMP DP  RH WIND       PRES   REMARKS
PRINCETON      FAIR      -2  -6  84 NW6       30.63R WCI -14
MORA           FAIR       0  -4  85 N6        30.64R WCI -12
CAMBRIDGE      FAIR       1  -6  71 NW7       30.63R WCI -11
RUSH CITY      CLOUDY     2  -2  81 N7        30.63R WCI -10
MOOSE LAKE     FAIR       1  -4  78 N6        30.60S WCI -10
HINCKLEY       FAIR       1  -2  85 N8        30.62R WCI -12
CLOQUET        FAIR       0  -6  78 NW14      30.58F WCI -19
MCGREGOR       CLOUDY     1  -2  85 NW7       30.63S WCI -11
$$
MNZ071>073-080-081-089-090-097-098-161100-
   Southwest Minnesota

CITY           SKY/WX    TMP DP  RH WIND       PRES   REMARKS
MONTEVIDEO     CLOUDY    -9 -15  77 N15       30.76R WCI -31
GRANITE FALLS  CLOUDY    -8 -13  76 NW18      30.77R WCI -31
CANBY          CLOUDY    -5 -10  78 NW13G21   30.77R WCI -25
MARSHALL       FLURRIES  -9 -14  78 N20       30.73R WCI -34
REDWOOD FALLS  FLURRIES  -8 -13  78 NW15G22   30.72R WCI -30
OLIVIA         CLOUDY    -8 -13  77 NW16G24   30.71R WCI -30
PIPESTONE      CLOUDY    -8 -11  84 N9        30.66R WCI -25
WINDOM         LGT SNOW  -8 -20  54 NW20      30.65R WCI -32
WORTHINGTON    FLURRIES -10 -14  82 N15       30.66R WCI -32
JACKSON        FLURRIES  -8 -13  77 NW18G24   30.63S WCI -31
SLAYTON        CLOUDY    -9 -14  79 NW16G22   30.66R WCI -32
$$
MNZ065>067-074>077-082>085-091>093-161100-
   South Central Minnesota

CITY           SKY/WX    TMP DP  RH WIND       PRES   REMARKS
MANKATO        FLURRIES  -6 -11  79 NW15      30.65R WCI -27
NEW ULM        CLOUDY    -8 -13  77 NW16G22   30.68R WCI -30
ST JAMES       LGT SNOW  -8 -11  84 NW21      30.68R WCI -32
FAIRMONT       LGT SNOW  -7 -12  79 NW21      30.64  WCI -32
FARIBAULT      CLOUDY     0  -6  78 W8        30.61R WCI -15
OWATONNA       CLOUDY    -2  -8  78 NW12      30.59R WCI -20
WASECA         CLOUDY    -6  -9  84 NW14      30.63R WCI -26
ALBERT LEA     LGT SNOW  -6 -11  77 NW10G17   30.57R WCI -23
$$
MNZ078>079-086>088-094>096-161100-
   Southeast Minnesota

CITY           SKY/WX    TMP DP  RH WIND       PRES   REMARKS
ROCHESTER      LGT SNOW   2  -1  88 NW16      30.52R FOG     WCI -18
RED WING       FAIR       0  -6  78 W7        30.59R WCI -13
STANTON        CLOUDY    -1  -6  80 NW8       30.60R WCI -15
DODGE CENTER   LGT SNOW   0  -6  78 NW15      30.53R WCI -20
WINONA         CLOUDY    10   5  79 NW12        N/A  WCI  -4
AUSTIN         FLURRIES   0  -6  78 NW17G23   30.54R WCI -21
PRESTON        LGT SNOW   3  -2  80 NW12      30.51R WCI -14
$$
ABBREVIATIONS USED IN REMARKS
   TC - TEMPERATURES IN CELSIUS
  WCI - WIND CHILL INDEX
   HX - HEAT INDEX
  VSB - VISIBILITY
$$



USA.gov is the U.S. government's official web portal to all federal, state and local government web resources and services.